| time (UTC) | temp C | wind direction | speed KPH | gust KPH | rain 1hr cm | rain 24hr cm | rain mn cm | humidity % | barometer mb |
| 20260506045044 | 20 | 0 | 0.0 | 4.8 | 0.00 | 0.00 | 0.00 | 54 | 1010.1 |
| 20260506044555 | 20 | 0 | 0.0 | 6.4 | 0.00 | 0.00 | 0.00 | 53 | 1010.1 |
| 20260506044043 | 20 | 0 | 1.6 | 6.4 | 0.00 | 0.00 | 0.00 | 52 | 1010.0 |
| 20260506043547 | 20 | 331 | 0.0 | 4.8 | 0.00 | 0.00 | 0.00 | 52 | 1010.1 |
| 20260506043050 | 20 | 332 | 0.0 | 4.8 | 0.00 | 0.00 | 0.00 | 52 | 1010.0 |
| 20260506042543 | 20 | 0 | 0.0 | 4.8 | 0.00 | 0.00 | 0.00 | 51 | 1010.1 |
| 20260506042042 | 20 | 0 | 0.0 | 4.8 | 0.00 | 0.00 | 0.00 | 51 | 1010.1 |
| 20260506041559 | 20 | 0 | 0.0 | 4.8 | 0.00 | 0.00 | 0.00 | 50 | 1010.0 |
| 20260506041044 | 20 | 0 | 0.0 | 3.2 | 0.00 | 0.00 | 0.00 | 50 | 1010.1 |
| 20260506040545 | 20 | 0 | 0.0 | 3.2 | 0.00 | 0.00 | 0.00 | 49 | 1010.0 |
| 20260506040050 | 20 | 0 | 0.0 | 4.8 | 0.00 | 0.00 | 0.00 | 49 | 1010.0 |
| 20260506035547 | 20 | 0 | 0.0 | 6.4 | 0.00 | 0.00 | 0.00 | 50 | 1010.0 |
| 20260506035047 | 20 | 0 | 0.0 | 6.4 | 0.00 | 0.00 | 0.00 | 49 | 1010.0 |
| 20260506034554 | 20 | 0 | 0.0 | 6.4 | 0.00 | 0.00 | 0.00 | 48 | 1009.9 |
| 20260506034044 | 20 | 0 | 0.0 | 6.4 | 0.00 | 0.00 | 0.00 | 47 | 1010.0 |
| 20260506033547 | 20 | 0 | 0.0 | 6.4 | 0.00 | 0.00 | 0.00 | 48 | 1010.0 |
| 20260506033052 | 20 | 0 | 0.0 | 6.4 | 0.00 | 0.00 | 0.00 | 47 | 1010.0 |
| 20260506032543 | 20 | 161 | 0.0 | 3.2 | 0.00 | 0.00 | 0.00 | 47 | 1009.9 |
| 20260506032043 | 20 | 0 | 0.0 | 3.2 | 0.00 | 0.00 | 0.00 | 48 | 1009.8 |
| 20260506031555 | 20 | 161 | 0.0 | 3.2 | 0.00 | 0.00 | 0.00 | 48 | 1009.8 |
| 20260506031043 | 20 | 0 | 0.0 | 3.2 | 0.00 | 0.00 | 0.00 | 48 | 1009.8 |
| 20260506030542 | 20 | 161 | 0.0 | 3.2 | 0.00 | 0.00 | 0.00 | 47 | 1009.8 |
| 20260506030051 | 20 | 0 | 0.0 | 3.2 | 0.00 | 0.00 | 0.00 | 49 | 1009.8 |
| 20260506025546 | 20 | 0 | 0.0 | 3.2 | 0.00 | 0.00 | 0.00 | 48 | 1009.9 |
| 20260506025045 | 20 | 161 | 0.0 | 6.4 | 0.00 | 0.00 | 0.00 | 48 | 1009.9 |
| 20260506024550 | 20 | 0 | 0.0 | 6.4 | 0.00 | 0.00 | 0.00 | 46 | 1010.0 |
| 20260506024043 | 20 | 0 | 0.0 | 3.2 | 0.00 | 0.00 | 0.00 | 47 | 1009.9 |
| 20260506023542 | 20 | 0 | 0.0 | 3.2 | 0.00 | 0.00 | 0.00 | 46 | 1009.9 |
| 20260506023051 | 21 | 0 | 0.0 | 4.8 | 0.00 | 0.00 | 0.00 | 46 | 1009.8 |
| 20260506022542 | 21 | 0 | 0.0 | 6.4 | 0.00 | 0.00 | 0.00 | 45 | 1010.0 |
| 20260506022043 | 21 | 0 | 0.0 | 6.4 | 0.00 | 0.00 | 0.00 | 45 | 1009.9 |
| 20260506021553 | 21 | 0 | 0.0 | 6.4 | 0.00 | 0.00 | 0.00 | 45 | 1009.9 |
| 20260506021045 | 21 | 0 | 0.0 | 3.2 | 0.00 | 0.00 | 0.00 | 45 | 1010.0 |
| 20260506020542 | 21 | 161 | 0.0 | 3.2 | 0.00 | 0.00 | 0.00 | 44 | 1010.0 |
| 20260506020048 | 21 | 0 | 0.0 | 6.4 | 0.00 | 0.00 | 0.00 | 43 | 1009.9 |
| 20260506015543 | 21 | 0 | 0.0 | 6.4 | 0.00 | 0.00 | 0.00 | 42 | 1009.9 |
| 20260506015042 | 21 | 0 | 0.0 | 3.2 | 0.00 | 0.00 | 0.00 | 43 | 1009.7 |
| 20260506014558 | 21 | 0 | 0.0 | 4.8 | 0.00 | 0.00 | 0.00 | 42 | 1009.7 |
| 20260506014044 | 21 | 161 | 0.0 | 6.4 | 0.00 | 0.00 | 0.00 | 40 | 1009.7 |
| 20260506013542 | 21 | 0 | 1.6 | 6.4 | 0.00 | 0.00 | 0.00 | 39 | 1009.6 |
| 20260506013055 | 22 | 161 | 0.0 | 8.0 | 0.00 | 0.00 | 0.00 | 39 | 1009.6 |
| 20260506012545 | 22 | 160 | 0.0 | 8.0 | 0.00 | 0.00 | 0.00 | 38 | 1009.5 |
| 20260506012043 | 22 | 160 | 0.0 | 9.7 | 0.00 | 0.00 | 0.00 | 38 | 1009.5 |
| 20260506011551 | 22 | 0 | 1.6 | 9.7 | 0.00 | 0.00 | 0.00 | 37 | 1009.4 |
| 20260506011042 | 22 | 181 | 1.6 | 6.4 | 0.00 | 0.00 | 0.00 | 37 | 1009.4 |
| 20260506010545 | 22 | 181 | 0.0 | 6.4 | 0.00 | 0.00 | 0.00 | 37 | 1009.3 |
| 20260506010057 | 22 | 181 | 1.6 | 4.8 | 0.00 | 0.00 | 0.00 | 37 | 1009.2 |
| 20260506005542 | 22 | 181 | 1.6 | 4.8 | 0.00 | 0.00 | 0.00 | 37 | 1009.2 |
| 20260506005042 | 22 | 0 | 0.0 | 4.8 | 0.00 | 0.00 | 0.00 | 37 | 1009.2 |
| 20260506004556 | 22 | 0 | 1.6 | 6.4 | 0.00 | 0.00 | 0.00 | 36 | 1009.2 |
| 20260506004042 | 22 | 181 | 1.6 | 6.4 | 0.00 | 0.00 | 0.00 | 36 | 1009.1 |
| 20260506003543 | 22 | 182 | 3.2 | 6.4 | 0.00 | 0.00 | 0.00 | 36 | 1008.9 |
| 20260506003050 | 22 | 0 | 1.6 | 6.4 | 0.00 | 0.00 | 0.00 | 37 | 1008.9 |
| 20260506002545 | 22 | 180 | 1.6 | 6.4 | 0.00 | 0.00 | 0.00 | 37 | 1009.0 |
| 20260506002042 | 22 | 0 | 1.6 | 6.4 | 0.00 | 0.00 | 0.00 | 37 | 1008.9 |
| 20260506001609 | 23 | 161 | 0.0 | 6.4 | 0.00 | 0.00 | 0.00 | 36 | 1008.8 |
| 20260506001042 | 23 | 161 | 1.6 | 6.4 | 0.00 | 0.00 | 0.00 | 36 | 1008.8 |
| 20260506000542 | 23 | 161 | 0.0 | 6.4 | 0.00 | 0.00 | 0.00 | 37 | 1008.7 |
| 20260506000051 | 23 | 161 | 0.0 | 8.0 | 0.00 | 0.00 | 0.00 | 37 | 1008.6 |
| 20260505235543 | 23 | 161 | 1.6 | 8.0 | 0.00 | 0.00 | 0.00 | 36 | 1008.5 |
| 20260505235046 | 23 | 161 | 1.6 | 8.0 | 0.00 | 0.00 | 0.00 | 37 | 1008.5 |
| 20260505234551 | 23 | 161 | 1.6 | 8.0 | 0.00 | 0.00 | 0.00 | 36 | 1008.6 |
| 20260505234043 | 24 | 161 | 1.6 | 6.4 | 0.00 | 0.00 | 0.00 | 37 | 1008.4 |
| 20260505233546 | 24 | 184 | 1.6 | 12.9 | 0.00 | 0.00 | 0.00 | 36 | 1008.5 |
| 20260505233055 | 24 | 184 | 1.6 | 12.9 | 0.00 | 0.00 | 0.00 | 36 | 1008.5 |
| 20260505232543 | 24 | 165 | 1.6 | 9.7 | 0.00 | 0.00 | 0.00 | 36 | 1008.5 |
| 20260505232043 | 25 | 157 | 1.6 | 9.7 | 0.00 | 0.00 | 0.00 | 34 | 1008.6 |
| 20260505231555 | 25 | 204 | 3.2 | 9.7 | 0.00 | 0.00 | 0.00 | 35 | 1008.5 |
| 20260505231046 | 25 | 164 | 1.6 | 11.3 | 0.00 | 0.00 | 0.00 | 35 | 1008.5 |
| 20260505230544 | 25 | 169 | 3.2 | 12.9 | 0.00 | 0.00 | 0.00 | 35 | 1008.4 |
| 20260505225542 | 25 | 183 | 3.2 | 12.9 | 0.00 | 0.00 | 0.00 | 34 | 1008.4 |
| 20260505225043 | 25 | 170 | 4.8 | 14.5 | 0.00 | 0.00 | 0.00 | 34 | 1008.4 |
| 20260505224556 | 25 | 211 | 4.8 | 14.5 | 0.00 | 0.00 | 0.00 | 34 | 1008.4 |
| 20260505224042 | 25 | 169 | 3.2 | 9.7 | 0.00 | 0.00 | 0.00 | 35 | 1008.5 |
| 20260505223542 | 25 | 159 | 3.2 | 11.3 | 0.00 | 0.00 | 0.00 | 35 | 1008.4 |
| 20260505223059 | 25 | 205 | 3.2 | 16.1 | 0.00 | 0.00 | 0.00 | 35 | 1008.5 |
| 20260505222542 | 25 | 178 | 4.8 | 16.1 | 0.00 | 0.00 | 0.00 | 35 | 1008.6 |
| 20260505222045 | 25 | 211 | 3.2 | 11.3 | 0.00 | 0.00 | 0.00 | 36 | 1008.6 |
| 20260505221600 | 25 | 197 | 3.2 | 14.5 | 0.00 | 0.00 | 0.00 | 34 | 1008.4 |
| 20260505221044 | 25 | 145 | 4.8 | 14.5 | 0.00 | 0.00 | 0.00 | 34 | 1008.6 |
| 20260505220547 | 25 | 165 | 3.2 | 11.3 | 0.00 | 0.00 | 0.00 | 34 | 1008.6 |
| 20260505220056 | 25 | 168 | 3.2 | 11.3 | 0.00 | 0.00 | 0.00 | 35 | 1008.7 |
| 20260505215542 | 25 | 191 | 4.8 | 11.3 | 0.00 | 0.00 | 0.00 | 34 | 1008.5 |
| 20260505215045 | 25 | 157 | 4.8 | 11.3 | 0.00 | 0.00 | 0.00 | 35 | 1008.6 |
| 20260505214605 | 25 | 159 | 3.2 | 11.3 | 0.00 | 0.00 | 0.00 | 36 | 1008.6 |
| 20260505214042 | 25 | 137 | 3.2 | 11.3 | 0.00 | 0.00 | 0.00 | 36 | 1008.6 |
| 20260505213542 | 25 | 115 | 4.8 | 11.3 | 0.00 | 0.00 | 0.00 | 35 | 1008.5 |
| 20260505213100 | 25 | 188 | 1.6 | 11.3 | 0.00 | 0.00 | 0.00 | 37 | 1008.3 |
| 20260505212545 | 25 | 180 | 3.2 | 17.7 | 0.00 | 0.00 | 0.00 | 36 | 1008.5 |
| 20260505212042 | 26 | 161 | 6.4 | 17.7 | 0.00 | 0.00 | 0.00 | 34 | 1008.5 |
| 20260505211553 | 26 | 167 | 4.8 | 17.7 | 0.00 | 0.00 | 0.00 | 35 | 1008.4 |
| 20260505211046 | 26 | 178 | 6.4 | 14.5 | 0.00 | 0.00 | 0.00 | 34 | 1008.3 |
| 20260505210541 | 26 | 178 | 4.8 | 14.5 | 0.00 | 0.00 | 0.00 | 35 | 1008.3 |
| 20260505210105 | 26 | 159 | 4.8 | 14.5 | 0.00 | 0.00 | 0.00 | 35 | 1008.4 |
| 20260505205542 | 26 | 146 | 4.8 | 11.3 | 0.00 | 0.00 | 0.00 | 35 | 1008.4 |
| 20260505205041 | 27 | 179 | 3.2 | 11.3 | 0.00 | 0.00 | 0.00 | 38 | 1008.3 |
| 20260505204558 | 27 | 194 | 4.8 | 16.1 | 0.00 | 0.00 | 0.00 | 36 | 1008.3 |
| 20260505204042 | 27 | 178 | 6.4 | 16.1 | 0.00 | 0.00 | 0.00 | 36 | 1008.3 |
| 20260505203541 | 27 | 161 | 6.4 | 12.9 | 0.00 | 0.00 | 0.00 | 37 | 1008.2 |
| 20260505203053 | 27 | 153 | 4.8 | 14.5 | 0.00 | 0.00 | 0.00 | 37 | 1008.2 |
| 20260505202542 | 27 | 191 | 4.8 | 16.1 | 0.00 | 0.00 | 0.00 | 36 | 1008.2 |
| 20260505202051 | 27 | 173 | 4.8 | 17.7 | 0.00 | 0.00 | 0.00 | 36 | 1008.3 |
| 20260505201601 | 27 | 171 | 6.4 | 17.7 | 0.00 | 0.00 | 0.00 | 36 | 1008.3 |
| 20260505201042 | 26 | 175 | 4.8 | 12.9 | 0.00 | 0.00 | 0.00 | 38 | 1008.2 |
| 20260505200545 | 26 | 163 | 3.2 | 14.5 | 0.00 | 0.00 | 0.00 | 37 | 1008.2 |
| 20260505200050 | 26 | 178 | 4.8 | 14.5 | 0.00 | 0.00 | 0.00 | 36 | 1008.3 |
| 20260505195545 | 26 | 196 | 4.8 | 16.1 | 0.00 | 0.00 | 0.00 | 37 | 1008.3 |
| 20260505195046 | 27 | 179 | 3.2 | 17.7 | 0.00 | 0.00 | 0.00 | 39 | 1008.5 |
| 20260505194549 | 27 | 186 | 4.8 | 17.7 | 0.00 | 0.00 | 0.00 | 35 | 1008.5 |
| 20260505194045 | 27 | 180 | 3.2 | 16.1 | 0.00 | 0.00 | 0.00 | 38 | 1008.6 |
| 20260505193548 | 27 | 159 | 6.4 | 16.1 | 0.00 | 0.00 | 0.00 | 36 | 1008.7 |
| 20260505193054 | 27 | 155 | 6.4 | 12.9 | 0.00 | 0.00 | 0.00 | 38 | 1008.7 |
| 20260505192546 | 27 | 192 | 4.8 | 11.3 | 0.00 | 0.00 | 0.00 | 40 | 1008.8 |
| 20260505192044 | 26 | 226 | 4.8 | 14.5 | 0.00 | 0.00 | 0.00 | 37 | 1008.9 |
| 20260505191558 | 27 | 153 | 6.4 | 14.5 | 0.00 | 0.00 | 0.00 | 38 | 1008.8 |
| 20260505191042 | 27 | 159 | 3.2 | 11.3 | 0.00 | 0.00 | 0.00 | 40 | 1009.0 |
| 20260505190541 | 27 | 163 | 4.8 | 12.9 | 0.00 | 0.00 | 0.00 | 39 | 1009.1 |
| 20260505190104 | 27 | 194 | 4.8 | 12.9 | 0.00 | 0.00 | 0.00 | 38 | 1009.1 |
| 20260505185544 | 27 | 152 | 4.8 | 11.3 | 0.00 | 0.00 | 0.00 | 39 | 1009.3 |
| 20260505185046 | 27 | 154 | 4.8 | 11.3 | 0.00 | 0.00 | 0.00 | 37 | 1009.3 |
| 20260505184604 | 27 | 168 | 3.2 | 12.9 | 0.00 | 0.00 | 0.00 | 38 | 1009.4 |
| 20260505184042 | 27 | 0 | 4.8 | 14.5 | 0.00 | 0.00 | 0.00 | 37 | 1009.4 |
| 20260505183545 | 26 | 197 | 4.8 | 14.5 | 0.00 | 0.00 | 0.00 | 38 | 1009.5 |
| 20260505183056 | 26 | 227 | 1.6 | 12.9 | 0.00 | 0.00 | 0.00 | 41 | 1009.6 |
| 20260505182545 | 26 | 169 | 4.8 | 12.9 | 0.00 | 0.00 | 0.00 | 39 | 1009.7 |
| 20260505182045 | 26 | 173 | 3.2 | 12.9 | 0.00 | 0.00 | 0.00 | 39 | 1009.7 |
| 20260505181559 | 26 | 193 | 3.2 | 12.9 | 0.00 | 0.00 | 0.00 | 39 | 1009.8 |
| 20260505181048 | 26 | 165 | 6.4 | 12.9 | 0.00 | 0.00 | 0.00 | 39 | 1009.9 |
| 20260505180544 | 26 | 184 | 4.8 | 11.3 | 0.00 | 0.00 | 0.00 | 38 | 1009.9 |
| 20260505180053 | 26 | 159 | 3.2 | 14.5 | 0.00 | 0.00 | 0.00 | 41 | 1010.0 |
| 20260505175542 | 26 | 194 | 4.8 | 20.9 | 0.00 | 0.00 | 0.00 | 39 | 1010.2 |
| 20260505175042 | 26 | 167 | 4.8 | 20.9 | 0.00 | 0.00 | 0.00 | 41 | 1010.1 |
| 20260505174550 | 26 | 176 | 4.8 | 20.9 | 0.00 | 0.00 | 0.00 | 40 | 1010.3 |
| 20260505174046 | 26 | 147 | 3.2 | 12.9 | 0.00 | 0.00 | 0.00 | 41 | 1010.3 |
| 20260505173546 | 26 | 189 | 1.6 | 12.9 | 0.00 | 0.00 | 0.00 | 41 | 1010.2 |
| 20260505173052 | 26 | 200 | 1.6 | 11.3 | 0.00 | 0.00 | 0.00 | 41 | 1010.2 |
| 20260505172547 | 25 | 188 | 4.8 | 11.3 | 0.00 | 0.00 | 0.00 | 43 | 1010.3 |
| 20260505172045 | 25 | 148 | 3.2 | 9.7 | 0.00 | 0.00 | 0.00 | 41 | 1010.3 |
| 20260505171551 | 26 | 174 | 3.2 | 11.3 | 0.00 | 0.00 | 0.00 | 40 | 1010.3 |
| 20260505171046 | 26 | 160 | 4.8 | 11.3 | 0.00 | 0.00 | 0.00 | 40 | 1010.4 |
| 20260505170545 | 26 | 159 | 4.8 | 11.3 | 0.00 | 0.00 | 0.00 | 42 | 1010.4 |
| 20260505170059 | 26 | 225 | 1.6 | 6.4 | 0.00 | 0.00 | 0.00 | 43 | 1010.5 |
| 20260505165542 | 25 | 200 | 1.6 | 11.3 | 0.00 | 0.00 | 0.00 | 41 | 1010.6 |
| 20260505165045 | 25 | 178 | 4.8 | 11.3 | 0.00 | 0.00 | 0.00 | 41 | 1010.8 |
| 20260505164551 | 25 | 173 | 3.2 | 12.9 | 0.00 | 0.00 | 0.00 | 41 | 1010.9 |
| 20260505164045 | 25 | 167 | 3.2 | 12.9 | 0.00 | 0.00 | 0.00 | 42 | 1010.9 |
| 20260505163544 | 25 | 157 | 3.2 | 11.3 | 0.00 | 0.00 | 0.00 | 42 | 1011.1 |
| 20260505163055 | 25 | 206 | 3.2 | 19.3 | 0.00 | 0.00 | 0.00 | 42 | 1011.1 |
| 20260505162541 | 25 | 248 | 4.8 | 19.3 | 0.00 | 0.00 | 0.00 | 47 | 1011.1 |
| 20260505162045 | 25 | 187 | 3.2 | 11.3 | 0.00 | 0.00 | 0.00 | 44 | 1011.2 |
| 20260505161617 | 25 | 211 | 3.2 | 12.9 | 0.00 | 0.00 | 0.00 | 42 | 1011.4 |
| 20260505161041 | 25 | 202 | 3.2 | 14.5 | 0.00 | 0.00 | 0.00 | 42 | 1011.4 |
| 20260505160547 | 24 | 187 | 4.8 | 17.7 | 0.00 | 0.00 | 0.00 | 41 | 1011.5 |
| 20260505153104 | 23 | 250 | 3.2 | 17.7 | 0.00 | 0.00 | 0.00 | 43 | 1011.5 |
| 20260505152542 | 23 | 221 | 3.2 | 17.7 | 0.00 | 0.00 | 0.00 | 48 | 1011.5 |
| 20260505152048 | 23 | 261 | 3.2 | 11.3 | 0.00 | 0.00 | 0.00 | 49 | 1011.6 |
| 20260505151552 | 23 | 223 | 1.6 | 11.3 | 0.00 | 0.00 | 0.00 | 49 | 1011.5 |
| 20260505151042 | 23 | 259 | 3.2 | 11.3 | 0.00 | 0.00 | 0.00 | 52 | 1011.5 |
| 20260505150549 | 23 | 158 | 3.2 | 9.7 | 0.00 | 0.00 | 0.00 | 48 | 1011.5 |
| 20260505150111 | 22 | 211 | 3.2 | 9.7 | 0.00 | 0.00 | 0.00 | 50 | 1011.3 |
| 20260505140545 | 19 | 0 | 0.0 | 4.8 | 0.00 | 0.00 | 0.00 | 64 | 1011.5 |
| 20260505140107 | 18 | 0 | 0.0 | 3.2 | 0.00 | 0.00 | 0.00 | 65 | 1011.5 |
| 20260505124556 | 13 | 0 | 0.0 | 0.0 | 0.00 | 0.00 | 0.00 | 81 | 1012.1 |
| 20260505124040 | 13 | 0 | 0.0 | 0.0 | 0.00 | 0.00 | 0.00 | 82 | 1012.1 |
| 20260505123544 | 13 | 0 | 0.0 | 1.6 | 0.00 | 0.00 | 0.00 | 81 | 1012.2 |
| 20260505123108 | 13 | 0 | 0.0 | 1.6 | 0.00 | 0.00 | 0.00 | 81 | 1012.2 |
| 20260505122543 | 13 | 0 | 0.0 | 1.6 | 0.00 | 0.00 | 0.00 | 80 | 1012.2 |
| 20260505122043 | 13 | 0 | 0.0 | 1.6 | 0.00 | 0.00 | 0.00 | 81 | 1012.2 |
| 20260505121553 | 13 | 0 | 0.0 | 1.6 | 0.00 | 0.00 | 0.00 | 82 | 1012.2 |
| 20260505121044 | 13 | 0 | 0.0 | 1.6 | 0.00 | 0.00 | 0.00 | 81 | 1012.2 |
| 20260505120543 | 12 | 0 | 0.0 | 1.6 | 0.00 | 0.00 | 0.00 | 81 | 1012.1 |
| 20260505120053 | 12 | 0 | 0.0 | 1.6 | 0.00 | 0.00 | 0.00 | 82 | 1012.2 |
| 20260505115541 | 12 | 0 | 0.0 | 1.6 | 0.00 | 0.00 | 0.00 | 81 | 1012.1 |
| 20260505115042 | 12 | 0 | 0.0 | 1.6 | 0.00 | 0.00 | 0.00 | 82 | 1012.1 |
| 20260505114559 | 12 | 0 | 0.0 | 0.0 | 0.00 | 0.00 | 0.00 | 82 | 1012.0 |
| 20260505114041 | 12 | 0 | 0.0 | 0.0 | 0.00 | 0.00 | 0.00 | 81 | 1012.1 |
| 20260505113541 | 12 | 0 | 0.0 | 0.0 | 0.00 | 0.00 | 0.00 | 82 | 1011.9 |
| 20260505113052 | 12 | 0 | 0.0 | 1.6 | 0.00 | 0.00 | 0.00 | 81 | 1011.8 |
| 20260505112541 | 12 | 0 | 0.0 | 1.6 | 0.00 | 0.00 | 0.00 | 81 | 1011.7 |
| 20260505112042 | 12 | 0 | 0.0 | 0.0 | 0.00 | 0.00 | 0.00 | 81 | 1011.6 |
| 20260505111554 | 12 | 0 | 0.0 | 0.0 | 0.00 | 0.00 | 0.00 | 81 | 1011.7 |
| 20260505111043 | 12 | 0 | 0.0 | 0.0 | 0.00 | 0.00 | 0.00 | 81 | 1011.6 |
| 20260505110541 | 12 | 0 | 0.0 | 1.6 | 0.00 | 0.00 | 0.00 | 81 | 1011.4 |
| 20260505102042 | 12 | 0 | 0.0 | 0.0 | 0.00 | 0.00 | 0.00 | 80 | 1011.1 |
| 20260505101554 | 12 | 0 | 0.0 | 0.0 | 0.00 | 0.00 | 0.00 | 80 | 1011.0 |
| 20260505101046 | 12 | 0 | 0.0 | 0.0 | 0.00 | 0.00 | 0.00 | 80 | 1011.0 |
| 20260505100543 | 12 | 0 | 0.0 | 0.0 | 0.00 | 0.00 | 0.00 | 80 | 1011.0 |
| 20260505100049 | 12 | 0 | 0.0 | 0.0 | 0.00 | 0.00 | 0.00 | 79 | 1011.0 |
| 20260505095543 | 12 | 0 | 0.0 | 0.0 | 0.00 | 0.00 | 0.00 | 79 | 1011.0 |
| 20260505095048 | 12 | 0 | 0.0 | 0.0 | 0.00 | 0.00 | 0.00 | 79 | 1011.1 |
| 20260505094557 | 12 | 0 | 0.0 | 0.0 | 0.00 | 0.00 | 0.00 | 79 | 1011.0 |
| 20260505094045 | 12 | 0 | 0.0 | 0.0 | 0.00 | 0.00 | 0.00 | 80 | 1011.0 |
| 20260505093549 | 12 | 0 | 0.0 | 0.0 | 0.00 | 0.00 | 0.00 | 79 | 1011.0 |
| 20260505093056 | 12 | 0 | 0.0 | 0.0 | 0.00 | 0.00 | 0.00 | 79 | 1011.0 |
| 20260505092547 | 13 | 0 | 0.0 | 0.0 | 0.00 | 0.00 | 0.00 | 79 | 1010.9 |
| 20260505092045 | 13 | 0 | 0.0 | 0.0 | 0.00 | 0.00 | 0.00 | 79 | 1010.9 |
| 20260505091551 | 13 | 0 | 0.0 | 0.0 | 0.00 | 0.00 | 0.00 | 79 | 1010.9 |
| 20260505091045 | 13 | 0 | 0.0 | 1.6 | 0.00 | 0.00 | 0.00 | 79 | 1011.0 |
| 20260505090545 | 12 | 0 | 0.0 | 1.6 | 0.00 | 0.00 | 0.00 | 79 | 1011.0 |
| 20260505090106 | 12 | 0 | 0.0 | 1.6 | 0.00 | 0.00 | 0.00 | 79 | 1011.0 |
| 20260505085543 | 12 | 0 | 0.0 | 1.6 | 0.00 | 0.00 | 0.00 | 79 | 1010.9 |
| 20260505085047 | 13 | 0 | 0.0 | 0.0 | 0.00 | 0.00 | 0.00 | 79 | 1010.9 |
| 20260505084551 | 13 | 0 | 0.0 | 0.0 | 0.00 | 0.00 | 0.00 | 78 | 1010.9 |
| 20260505084046 | 13 | 0 | 0.0 | 0.0 | 0.00 | 0.00 | 0.00 | 78 | 1010.8 |
| 20260505083545 | 13 | 0 | 0.0 | 0.0 | 0.00 | 0.00 | 0.00 | 77 | 1010.6 |
| 20260505083107 | 13 | 0 | 0.0 | 0.0 | 0.00 | 0.00 | 0.00 | 77 | 1010.6 |
| 20260505082545 | 13 | 0 | 0.0 | 0.0 | 0.00 | 0.00 | 0.00 | 76 | 1010.6 |
| 20260505082045 | 13 | 0 | 0.0 | 0.0 | 0.00 | 0.00 | 0.00 | 76 | 1010.4 |
| 20260505081555 | 13 | 0 | 0.0 | 0.0 | 0.00 | 0.00 | 0.00 | 75 | 1010.5 |
| 20260505081046 | 13 | 0 | 0.0 | 0.0 | 0.00 | 0.00 | 0.00 | 75 | 1010.4 |
| 20260505080546 | 13 | 0 | 0.0 | 1.6 | 0.00 | 0.00 | 0.00 | 75 | 1010.5 |
| 20260505080057 | 13 | 0 | 0.0 | 1.6 | 0.00 | 0.00 | 0.00 | 75 | 1010.6 |
| 20260505075545 | 13 | 0 | 0.0 | 1.6 | 0.00 | 0.00 | 0.00 | 76 | 1010.5 |
| 20260505075047 | 13 | 0 | 0.0 | 4.8 | 0.00 | 0.00 | 0.00 | 75 | 1010.5 |
| 20260505074557 | 13 | 0 | 0.0 | 4.8 | 0.00 | 0.00 | 0.00 | 76 | 1010.4 |
| 20260505074049 | 13 | 236 | 0.0 | 3.2 | 0.00 | 0.00 | 0.00 | 76 | 1010.5 |
| 20260505073548 | 13 | 0 | 0.0 | 3.2 | 0.00 | 0.00 | 0.00 | 76 | 1010.5 |
| 20260505073100 | 13 | 0 | 0.0 | 1.6 | 0.00 | 0.00 | 0.00 | 75 | 1010.5 |
| 20260505072546 | 13 | 0 | 0.0 | 0.0 | 0.00 | 0.00 | 0.00 | 75 | 1010.3 |
| 20260505072045 | 13 | 0 | 0.0 | 1.6 | 0.00 | 0.00 | 0.00 | 75 | 1010.4 |
| 20260505071551 | 13 | 0 | 0.0 | 1.6 | 0.00 | 0.00 | 0.00 | 75 | 1010.4 |
| 20260505071045 | 13 | 0 | 0.0 | 0.0 | 0.00 | 0.00 | 0.00 | 74 | 1010.4 |
| 20260505070549 | 13 | 0 | 0.0 | 0.0 | 0.00 | 0.00 | 0.00 | 74 | 1010.4 |
| 20260505070054 | 14 | 0 | 0.0 | 0.0 | 0.00 | 0.00 | 0.00 | 74 | 1010.4 |
| 20260505065545 | 14 | 0 | 0.0 | 0.0 | 0.00 | 0.00 | 0.00 | 74 | 1010.4 |
| 20260505065046 | 14 | 0 | 0.0 | 0.0 | 0.00 | 0.00 | 0.00 | 74 | 1010.4 |
| 20260505064551 | 14 | 0 | 0.0 | 0.0 | 0.00 | 0.00 | 0.00 | 73 | 1010.4 |
| 20260505064047 | 14 | 0 | 0.0 | 0.0 | 0.00 | 0.00 | 0.00 | 74 | 1010.5 |
| 20260505063610 | 14 | 0 | 0.0 | 0.0 | 0.00 | 0.00 | 0.00 | 73 | 1010.5 |
| 20260505063059 | 14 | 0 | 0.0 | 0.0 | 0.00 | 0.00 | 0.00 | 73 | 1010.5 |
| 20260505062546 | 14 | 0 | 0.0 | 0.0 | 0.00 | 0.00 | 0.00 | 73 | 1010.5 |
| 20260505062043 | 14 | 0 | 0.0 | 0.0 | 0.00 | 0.00 | 0.00 | 72 | 1010.6 |
| 20260505061547 | 15 | 0 | 0.0 | 0.0 | 0.00 | 0.00 | 0.00 | 72 | 1010.7 |
| 20260505061044 | 15 | 0 | 0.0 | 1.6 | 0.00 | 0.00 | 0.00 | 72 | 1010.6 |
| 20260505060545 | 15 | 0 | 0.0 | 1.6 | 0.00 | 0.00 | 0.00 | 72 | 1010.6 |
| 20260505060058 | 15 | 0 | 0.0 | 0.0 | 0.00 | 0.00 | 0.00 | 71 | 1010.6 |
| 20260505055545 | 15 | 0 | 0.0 | 0.0 | 0.00 | 0.00 | 0.00 | 71 | 1010.6 |
| 20260505055050 | 15 | 0 | 0.0 | 0.0 | 0.00 | 0.00 | 0.00 | 71 | 1010.5 |
| 20260505054556 | 15 | 0 | 0.0 | 1.6 | 0.00 | 0.00 | 0.00 | 71 | 1010.6 |
| 20260505054046 | 15 | 0 | 0.0 | 1.6 | 0.00 | 0.00 | 0.00 | 71 | 1010.5 |
| 20260505053548 | 15 | 0 | 0.0 | 3.2 | 0.00 | 0.00 | 0.00 | 71 | 1010.5 |
| 20260505053050 | 15 | 0 | 0.0 | 3.2 | 0.00 | 0.00 | 0.00 | 71 | 1010.5 |
| 20260505052545 | 15 | 175 | 0.0 | 1.6 | 0.00 | 0.00 | 0.00 | 71 | 1010.4 |
| 20260505052046 | 15 | 0 | 0.0 | 1.6 | 0.00 | 0.00 | 0.00 | 71 | 1010.3 |
| 20260505051556 | 15 | 0 | 0.0 | 3.2 | 0.00 | 0.00 | 0.00 | 71 | 1010.5 |
| 20260505051046 | 15 | 0 | 0.0 | 3.2 | 0.00 | 0.00 | 0.00 | 71 | 1010.6 |
| 20260505050545 | 15 | 0 | 0.0 | 1.6 | 0.00 | 0.00 | 0.00 | 70 | 1010.6 |
| 20260505050126 | 15 | 0 | 0.0 | 1.6 | 0.00 | 0.00 | 0.00 | 70 | 1010.6 |